Time,TemperatureF,DewpointF,PressureIn,WindDirection,WindDirectionDegrees,WindSpeedMPH,WindSpeedGustMPH,Humidity,HourlyPrecipIn,Conditions,Clouds,dailyrainin,SoftwareType,DateUTC
2013-04-13 00:01:00,65.7,42.6,29.83,SE,133,1.0,11.0,43,0.00,,,0.00,meteohub,2013-04-13 05:01:00,
2013-04-13 00:06:00,65.3,42.8,29.83,SE,142,7.0,11.0,44,0.00,,,0.00,meteohub,2013-04-13 05:06:00,
2013-04-13 00:11:00,64.9,42.4,29.83,SE,134,1.0,12.0,44,0.00,,,0.00,meteohub,2013-04-13 05:11:00,
2013-04-13 00:17:00,64.9,42.4,29.84,SE,132,0.0,12.0,44,0.00,,,0.00,meteohub,2013-04-13 05:17:00,
2013-04-13 00:22:00,64.6,42.8,29.84,ESE,115,0.0,9.0,45,0.00,,,0.00,meteohub,2013-04-13 05:22:00,
2013-04-13 00:27:00,64.2,42.4,29.83,SE,124,1.0,9.0,45,0.00,,,0.00,meteohub,2013-04-13 05:27:00,
2013-04-13 00:32:00,64.0,42.8,29.83,South,191,0.0,9.0,46,0.00,,,0.00,meteohub,2013-04-13 05:32:00,
2013-04-13 00:37:00,63.7,42.4,29.83,SSE,162,0.0,9.0,46,0.00,,,0.00,meteohub,2013-04-13 05:37:00,
2013-04-13 00:42:00,63.3,42.8,29.83,SE,124,5.0,7.0,47,0.00,,,0.00,meteohub,2013-04-13 05:42:00,
2013-04-13 00:47:00,63.1,42.6,29.83,SSE,149,9.0,9.0,47,0.00,,,0.00,meteohub,2013-04-13 05:47:00,
2013-04-13 00:52:00,63.0,43.0,29.83,SE,124,2.0,11.0,48,0.00,,,0.00,meteohub,2013-04-13 05:52:00,
2013-04-13 00:57:00,62.8,42.8,29.83,ESE,117,0.0,11.0,48,0.00,,,0.00,meteohub,2013-04-13 05:57:00,
2013-04-13 01:02:00,62.6,42.6,29.83,SSE,153,8.0,14.0,48,0.00,,,0.00,meteohub,2013-04-13 06:02:00,
2013-04-13 01:07:00,62.4,42.4,29.83,South,169,6.0,14.0,48,0.00,,,0.00,meteohub,2013-04-13 06:07:00,
2013-04-13 01:12:00,62.2,42.3,29.83,SE,124,0.0,14.0,48,0.00,,,0.00,meteohub,2013-04-13 06:12:00,
2013-04-13 01:17:00,62.2,42.3,29.83,SE,129,4.0,14.0,48,0.00,,,0.00,meteohub,2013-04-13 06:17:00,
2013-04-13 01:23:00,62.2,42.3,29.83,SE,140,7.0,14.0,48,0.00,,,0.00,meteohub,2013-04-13 06:23:00,
2013-04-13 01:28:00,62.2,41.7,29.83,SSE,155,0.0,14.0,47,0.00,,,0.00,meteohub,2013-04-13 06:28:00,
2013-04-13 01:35:00,62.4,41.9,29.83,SSE,151,8.0,14.0,47,0.00,,,0.00,meteohub,2013-04-13 06:35:00,
2013-04-13 01:40:00,62.4,41.4,29.83,SSE,154,10.0,18.0,46,0.00,,,0.00,meteohub,2013-04-13 06:40:00,
2013-04-13 01:45:00,62.8,41.7,29.83,SE,146,1.0,18.0,46,0.00,,,0.00,meteohub,2013-04-13 06:45:00,
2013-04-13 01:52:00,63.1,41.5,29.83,SE,144,9.0,16.0,45,0.00,,,0.00,meteohub,2013-04-13 06:52:00,
2013-04-13 01:57:00,63.5,41.7,29.83,SSE,158,8.0,17.0,45,0.00,,,0.00,meteohub,2013-04-13 06:57:00,
2013-04-13 02:03:00,63.7,41.9,29.83,SSE,161,2.0,17.0,45,0.00,,,0.00,meteohub,2013-04-13 07:03:00,
2013-04-13 02:08:00,63.9,42.1,29.83,SSE,155,8.0,17.0,45,0.00,,,0.00,meteohub,2013-04-13 07:08:00,
2013-04-13 02:16:00,63.9,42.1,29.83,ESE,117,4.0,18.0,45,0.00,,,0.00,meteohub,2013-04-13 07:16:00,
2013-04-13 02:22:00,63.7,41.9,29.83,SE,146,6.0,18.0,45,0.00,,,0.00,meteohub,2013-04-13 07:22:00,
2013-04-13 02:27:00,63.5,42.3,29.83,SSE,147,0.0,11.0,46,0.00,,,0.00,meteohub,2013-04-13 07:27:00,
2013-04-13 02:32:00,63.3,42.3,29.83,SE,138,0.0,11.0,46,0.00,,,0.00,meteohub,2013-04-13 07:32:00,
2013-04-13 02:37:00,63.1,42.1,29.83,SSE,159,8.0,11.0,46,0.00,,,0.00,meteohub,2013-04-13 07:37:00,
2013-04-13 02:44:00,63.1,42.1,29.83,SE,140,0.0,11.0,46,0.00,,,0.00,meteohub,2013-04-13 07:44:00,
2013-04-13 02:49:00,62.8,42.3,29.83,SE,130,0.0,12.0,47,0.00,,,0.00,meteohub,2013-04-13 07:49:00,
2013-04-13 02:54:00,62.8,42.8,29.83,SE,127,2.0,12.0,48,0.00,,,0.00,meteohub,2013-04-13 07:54:00,
2013-04-13 03:00:00,62.6,42.6,29.83,SE,134,6.0,12.0,48,0.00,,,0.00,meteohub,2013-04-13 08:00:00,
2013-04-13 03:07:00,62.4,42.4,29.83,South,170,11.0,11.0,48,0.00,,,0.00,meteohub,2013-04-13 08:07:00,
2013-04-13 03:12:00,62.4,42.4,29.82,SSE,159,9.0,11.0,48,0.00,,,0.00,meteohub,2013-04-13 08:12:00,
2013-04-13 03:17:00,62.4,42.4,29.82,SSE,157,0.0,14.0,48,0.00,,,0.00,meteohub,2013-04-13 08:17:00,
2013-04-13 03:22:00,62.4,42.4,29.82,South,178,2.0,11.0,48,0.00,,,0.00,meteohub,2013-04-13 08:22:00,
2013-04-13 03:28:00,62.2,42.8,29.83,ESE,113,1.0,13.0,49,0.00,,,0.00,meteohub,2013-04-13 08:28:00,
2013-04-13 03:35:00,62.2,42.8,29.83,SE,136,2.0,13.0,49,0.00,,,0.00,meteohub,2013-04-13 08:35:00,
2013-04-13 03:43:00,62.1,42.6,29.83,SE,126,2.0,13.0,49,0.00,,,0.00,meteohub,2013-04-13 08:43:00,
2013-04-13 03:48:00,61.9,41.9,29.83,South,173,0.0,12.0,48,0.00,,,0.00,meteohub,2013-04-13 08:48:00,
2013-04-13 03:53:00,61.9,41.9,29.83,SSE,148,0.0,12.0,48,0.00,,,0.00,meteohub,2013-04-13 08:53:00,
2013-04-13 03:58:00,61.7,41.9,29.83,SSE,165,5.0,14.0,48,0.00,,,0.00,meteohub,2013-04-13 08:58:00,
2013-04-13 04:03:00,61.5,41.2,29.83,SE,135,1.0,14.0,47,0.00,,,0.00,meteohub,2013-04-13 09:03:00,
2013-04-13 04:11:00,61.5,41.2,29.83,SSE,148,0.0,14.0,47,0.00,,,0.00,meteohub,2013-04-13 09:11:00,
2013-04-13 04:17:00,61.2,40.8,29.83,ESE,105,4.0,11.0,47,0.00,,,0.00,meteohub,2013-04-13 09:17:00,
2013-04-13 04:22:00,61.0,40.1,29.83,SSE,149,0.0,11.0,46,0.00,,,0.00,meteohub,2013-04-13 09:22:00,
2013-04-13 04:27:00,60.8,39.9,29.83,ESE,111,4.0,12.0,46,0.00,,,0.00,meteohub,2013-04-13 09:27:00,
2013-04-13 04:33:00,60.6,39.7,29.83,SE,126,0.0,12.0,46,0.00,,,0.00,meteohub,2013-04-13 09:33:00,
2013-04-13 04:38:00,60.4,39.6,29.84,SE,128,0.0,9.0,46,0.00,,,0.00,meteohub,2013-04-13 09:38:00,
2013-04-13 04:43:00,60.3,39.4,29.83,SE,139,0.0,9.0,46,0.00,,,0.00,meteohub,2013-04-13 09:43:00,
2013-04-13 04:51:00,59.9,39.0,29.83,SE,140,0.0,9.0,46,0.00,,,0.00,meteohub,2013-04-13 09:51:00,
2013-04-13 04:56:00,59.7,38.8,29.84,SE,142,0.0,9.0,46,0.00,,,0.00,meteohub,2013-04-13 09:56:00,
2013-04-13 05:02:00,59.4,37.9,29.84,SE,145,0.0,8.0,45,0.00,,,0.00,meteohub,2013-04-13 10:02:00,
2013-04-13 05:07:00,59.2,37.9,29.84,SSE,153,0.0,8.0,45,0.00,,,0.00,meteohub,2013-04-13 10:07:00,
2013-04-13 05:12:00,58.8,38.1,29.84,SE,124,0.0,0.0,46,0.00,,,0.00,meteohub,2013-04-13 10:12:00,
2013-04-13 05:17:00,58.6,38.5,29.84,SE,124,0.0,0.0,47,0.00,,,0.00,meteohub,2013-04-13 10:17:00,
2013-04-13 05:22:00,58.5,38.8,29.84,ESE,123,0.0,0.0,48,0.00,,,0.00,meteohub,2013-04-13 10:22:00,
2013-04-13 05:30:00,57.9,39.4,29.84,ESE,123,0.0,0.0,50,0.00,,,0.00,meteohub,2013-04-13 10:30:00,
2013-04-13 05:35:00,57.6,39.6,29.85,ESE,123,0.0,0.0,51,0.00,,,0.00,meteohub,2013-04-13 10:35:00,
2013-04-13 05:42:00,57.2,39.7,29.85,ESE,123,0.0,0.0,52,0.00,,,0.00,meteohub,2013-04-13 10:42:00,
2013-04-13 05:48:00,57.0,39.6,29.85,ESE,123,0.0,0.0,52,0.00,,,0.00,meteohub,2013-04-13 10:48:00,
2013-04-13 05:53:00,56.5,39.6,29.85,ESE,123,0.0,0.0,53,0.00,,,0.00,meteohub,2013-04-13 10:53:00,
2013-04-13 06:01:00,56.3,39.4,29.85,ESE,123,0.0,0.0,53,0.00,,,0.00,meteohub,2013-04-13 11:01:00,
2013-04-13 06:07:00,55.9,39.0,29.85,ESE,123,0.0,0.0,53,0.00,,,0.00,meteohub,2013-04-13 11:07:00,
2013-04-13 06:12:00,55.9,39.6,29.85,ESE,123,0.0,0.0,54,0.00,,,0.00,meteohub,2013-04-13 11:12:00,
2013-04-13 06:20:00,55.6,39.2,29.85,ESE,123,0.0,0.0,54,0.00,,,0.00,meteohub,2013-04-13 11:20:00,
2013-04-13 06:27:00,55.2,38.8,29.85,ESE,123,0.0,0.0,54,0.00,,,0.00,meteohub,2013-04-13 11:27:00,
2013-04-13 06:37:00,54.9,38.5,29.85,ESE,123,0.0,0.0,54,0.00,,,0.00,meteohub,2013-04-13 11:37:00,
2013-04-13 06:42:00,54.9,38.5,29.85,ESE,123,0.0,0.0,54,0.00,,,0.00,meteohub,2013-04-13 11:42:00,
2013-04-13 06:47:00,54.7,38.3,29.85,ESE,123,0.0,0.0,54,0.00,,,0.00,meteohub,2013-04-13 11:47:00,
2013-04-13 06:52:00,54.3,38.5,29.85,ESE,123,0.0,0.0,55,0.00,,,0.00,meteohub,2013-04-13 11:52:00,
2013-04-13 06:57:00,54.3,38.5,29.86,ESE,123,0.0,0.0,55,0.00,,,0.00,meteohub,2013-04-13 11:57:00,
2013-04-13 07:02:00,54.3,38.5,29.85,ESE,123,0.0,0.0,55,0.00,,,0.00,meteohub,2013-04-13 12:02:00,
2013-04-13 07:07:00,54.1,38.8,29.86,ESE,123,0.0,0.0,56,0.00,,,0.00,meteohub,2013-04-13 12:07:00,
2013-04-13 07:13:00,54.0,38.7,29.86,ESE,123,0.0,0.0,56,0.00,,,0.00,meteohub,2013-04-13 12:13:00,
2013-04-13 07:21:00,54.0,39.0,29.86,ESE,123,0.0,0.0,57,0.00,,,0.00,meteohub,2013-04-13 12:21:00,
2013-04-13 07:26:00,53.8,39.4,29.85,ESE,123,0.0,0.0,58,0.00,,,0.00,meteohub,2013-04-13 12:26:00,
2013-04-13 07:31:00,53.6,39.2,29.85,ESE,123,0.0,0.0,58,0.00,,,0.00,meteohub,2013-04-13 12:31:00,
2013-04-13 07:37:00,53.4,39.4,29.86,ESE,123,0.0,0.0,59,0.00,,,0.00,meteohub,2013-04-13 12:37:00,
2013-04-13 07:42:00,53.2,39.7,29.86,ESE,123,0.0,0.0,60,0.00,,,0.00,meteohub,2013-04-13 12:42:00,
2013-04-13 07:47:00,53.2,39.7,29.86,ESE,123,0.0,0.0,60,0.00,,,0.00,meteohub,2013-04-13 12:47:00,
2013-04-13 07:52:00,53.4,39.9,29.86,ESE,123,0.0,0.0,60,0.00,,,0.00,meteohub,2013-04-13 12:52:00,
2013-04-13 07:57:00,53.8,39.7,29.86,ESE,123,0.0,0.0,59,0.00,,,0.00,meteohub,2013-04-13 12:57:00,
2013-04-13 08:02:00,54.0,39.6,29.86,ESE,123,0.0,0.0,58,0.00,,,0.00,meteohub,2013-04-13 13:02:00,
2013-04-13 08:07:00,54.1,39.7,29.86,ESE,123,0.0,0.0,58,0.00,,,0.00,meteohub,2013-04-13 13:07:00,
2013-04-13 08:17:00,54.7,39.7,29.86,ESE,123,0.0,0.0,57,0.00,,,0.00,meteohub,2013-04-13 13:17:00,
2013-04-13 08:22:00,54.9,39.9,29.86,ESE,123,0.0,0.0,57,0.00,,,0.00,meteohub,2013-04-13 13:22:00,
2013-04-13 08:27:00,55.0,39.6,29.86,ESE,123,0.0,0.0,56,0.00,,,0.00,meteohub,2013-04-13 13:27:00,
2013-04-13 08:32:00,55.0,40.1,29.87,ESE,123,0.0,0.0,57,0.00,,,0.00,meteohub,2013-04-13 13:32:00,
2013-04-13 08:37:00,55.6,40.1,29.87,ESE,123,0.0,0.0,56,0.00,,,0.00,meteohub,2013-04-13 13:37:00,
2013-04-13 08:42:00,55.9,40.5,29.87,ESE,123,0.0,0.0,56,0.00,,,0.00,meteohub,2013-04-13 13:42:00,
2013-04-13 08:48:00,56.3,40.3,29.86,ESE,123,0.0,0.0,55,0.00,,,0.00,meteohub,2013-04-13 13:48:00,
2013-04-13 08:53:00,57.4,39.9,29.86,SE,130,0.0,0.0,52,0.00,,,0.00,meteohub,2013-04-13 13:53:00,
2013-04-13 08:58:00,58.3,40.3,29.86,SSE,152,0.0,0.0,51,0.00,,,0.00,meteohub,2013-04-13 13:58:00,
2013-04-13 09:03:00,58.3,40.3,29.86,South,191,4.0,0.0,51,0.00,,,0.00,meteohub,2013-04-13 14:03:00,
2013-04-13 09:08:00,59.5,39.9,29.86,SSE,164,0.0,0.0,48,0.00,,,0.00,meteohub,2013-04-13 14:08:00,
2013-04-13 09:15:00,59.7,39.9,29.86,SSE,154,0.0,0.0,48,0.00,,,0.00,meteohub,2013-04-13 14:15:00,
2013-04-13 09:22:00,61.2,40.8,29.86,SSE,164,0.0,8.0,47,0.00,,,0.00,meteohub,2013-04-13 14:22:00,
2013-04-13 09:27:00,61.5,40.5,29.86,SSE,161,5.0,8.0,46,0.00,,,0.00,meteohub,2013-04-13 14:27:00,
2013-04-13 09:32:00,62.2,40.6,29.86,South,184,2.0,8.0,45,0.00,,,0.00,meteohub,2013-04-13 14:32:00,
2013-04-13 09:42:00,63.1,40.8,29.86,SE,144,0.0,11.0,44,0.00,,,0.00,meteohub,2013-04-13 14:42:00,
2013-04-13 09:47:00,63.3,41.0,29.86,SE,144,0.0,11.0,44,0.00,,,0.00,meteohub,2013-04-13 14:47:00,
2013-04-13 09:52:00,63.9,41.0,29.86,SSE,164,4.0,11.0,43,0.00,,,0.00,meteohub,2013-04-13 14:52:00,
2013-04-13 09:57:00,64.0,40.5,29.86,South,185,0.0,11.0,42,0.00,,,0.00,meteohub,2013-04-13 14:57:00,
2013-04-13 10:06:00,64.0,40.5,29.86,South,175,6.0,11.0,42,0.00,,,0.00,meteohub,2013-04-13 15:06:00,
2013-04-13 10:12:00,64.8,39.2,29.85,SSE,157,5.0,10.0,39,0.00,,,0.00,meteohub,2013-04-13 15:12:00,
2013-04-13 10:17:00,65.1,40.3,29.85,East,87,0.0,12.0,40,0.00,,,0.00,meteohub,2013-04-13 15:17:00,
2013-04-13 10:24:00,65.7,40.6,29.85,SSW,202,0.0,12.0,40,0.00,,,0.00,meteohub,2013-04-13 15:24:00,
2013-04-13 10:32:00,66.9,39.7,29.84,South,176,9.0,13.0,37,0.00,,,0.00,meteohub,2013-04-13 15:32:00,
2013-04-13 10:37:00,67.5,40.3,29.84,SSE,160,10.0,13.0,37,0.00,,,0.00,meteohub,2013-04-13 15:37:00,
2013-04-13 10:43:00,67.8,40.6,29.84,SSE,161,8.0,13.0,37,0.00,,,0.00,meteohub,2013-04-13 15:43:00,
2013-04-13 10:52:00,69.1,39.6,29.84,South,179,9.0,15.0,34,0.00,,,0.00,meteohub,2013-04-13 15:52:00,
2013-04-13 11:00:00,70.3,39.9,29.84,SSW,205,10.0,15.0,33,0.00,,,0.00,meteohub,2013-04-13 16:00:00,
2013-04-13 11:08:00,71.4,39.2,29.83,SE,134,4.0,17.0,31,0.00,,,0.00,meteohub,2013-04-13 16:08:00,
2013-04-13 11:16:00,71.8,39.6,29.83,SE,140,7.0,17.0,31,0.00,,,0.00,meteohub,2013-04-13 16:16:00,
2013-04-13 11:22:00,73.2,39.0,29.83,SSE,165,10.0,13.0,29,0.00,,,0.00,meteohub,2013-04-13 16:22:00,
2013-04-13 11:27:00,73.2,38.1,29.83,SSW,211,8.0,13.0,28,0.00,,,0.00,meteohub,2013-04-13 16:27:00,
2013-04-13 11:32:00,73.4,36.5,29.83,SE,138,14.0,14.0,26,0.00,,,0.00,meteohub,2013-04-13 16:32:00,
2013-04-13 11:39:00,73.9,36.9,29.83,South,186,4.0,23.0,26,0.00,,,0.00,meteohub,2013-04-13 16:39:00,
2013-04-13 11:47:00,75.2,36.0,29.82,South,190,4.0,17.0,24,0.00,,,0.00,meteohub,2013-04-13 16:47:00,
2013-04-13 11:52:00,75.7,36.3,29.83,SW,227,2.0,17.0,24,0.00,,,0.00,meteohub,2013-04-13 16:52:00,
2013-04-13 11:57:00,76.1,36.7,29.83,SSE,162,10.0,14.0,24,0.00,,,0.00,meteohub,2013-04-13 16:57:00,
2013-04-13 12:02:00,76.1,35.6,29.82,SSW,202,4.0,14.0,23,0.00,,,0.00,meteohub,2013-04-13 17:02:00,
2013-04-13 12:09:00,76.1,35.6,29.82,South,186,2.0,14.0,23,0.00,,,0.00,meteohub,2013-04-13 17:09:00,
2013-04-13 12:20:00,75.9,36.5,29.81,ESE,123,4.0,17.0,24,0.00,,,0.00,meteohub,2013-04-13 17:20:00,
2013-04-13 12:26:00,76.1,36.7,29.81,SSE,153,0.0,17.0,24,0.00,,,0.00,meteohub,2013-04-13 17:26:00,
2013-04-13 12:32:00,76.5,37.0,29.80,SSW,209,3.0,24.0,24,0.00,,,0.00,meteohub,2013-04-13 17:32:00,
2013-04-13 12:37:00,76.6,36.1,29.80,SE,138,8.0,24.0,23,0.00,,,0.00,meteohub,2013-04-13 17:37:00,
2013-04-13 12:44:00,77.0,36.3,29.80,SE,140,12.0,21.0,23,0.00,,,0.00,meteohub,2013-04-13 17:44:00,
2013-04-13 12:49:00,77.4,36.7,29.80,SW,223,3.0,21.0,23,0.00,,,0.00,meteohub,2013-04-13 17:49:00,
2013-04-13 12:54:00,77.9,37.0,29.79,SE,141,6.0,21.0,23,0.00,,,0.00,meteohub,2013-04-13 17:54:00,
2013-04-13 13:01:00,77.9,37.0,29.79,SE,144,20.0,20.0,23,0.00,,,0.00,meteohub,2013-04-13 18:01:00,
2013-04-13 13:09:00,78.1,37.2,29.79,South,182,2.0,19.0,23,0.00,,,0.00,meteohub,2013-04-13 18:09:00,
2013-04-13 13:16:00,78.4,37.6,29.78,South,180,5.0,21.0,23,0.00,,,0.00,meteohub,2013-04-13 18:16:00,
2013-04-13 13:22:00,79.0,37.9,29.78,SSE,159,15.0,21.0,23,0.00,,,0.00,meteohub,2013-04-13 18:22:00,
2013-04-13 13:27:00,78.6,37.8,29.78,SSE,167,4.0,21.0,23,0.00,,,0.00,meteohub,2013-04-13 18:27:00,
2013-04-13 13:32:00,78.4,38.7,29.77,SW,219,3.0,23.0,24,0.00,,,0.00,meteohub,2013-04-13 18:32:00,
2013-04-13 13:38:00,78.8,37.9,29.77,South,189,3.0,19.0,23,0.00,,,0.00,meteohub,2013-04-13 18:38:00,
2013-04-13 13:43:00,79.3,38.3,29.76,SSW,200,4.0,19.0,23,0.00,,,0.00,meteohub,2013-04-13 18:43:00,
2013-04-13 13:48:00,79.9,37.6,29.76,SW,218,4.0,19.0,22,0.00,,,0.00,meteohub,2013-04-13 18:48:00,
2013-04-13 13:53:00,80.2,36.7,29.76,SE,136,10.0,19.0,21,0.00,,,0.00,meteohub,2013-04-13 18:53:00,
2013-04-13 13:58:00,80.4,35.6,29.76,SSE,163,7.0,15.0,20,0.00,,,0.00,meteohub,2013-04-13 18:58:00,
2013-04-13 14:03:00,80.1,36.7,29.75,SW,232,5.0,15.0,21,0.00,,,0.00,meteohub,2013-04-13 19:03:00,
2013-04-13 14:08:00,80.1,36.7,29.75,SSW,201,0.0,19.0,21,0.00,,,0.00,meteohub,2013-04-13 19:08:00,
2013-04-13 14:13:00,80.4,35.6,29.75,SSE,163,0.0,19.0,20,0.00,,,0.00,meteohub,2013-04-13 19:13:00,
2013-04-13 14:18:00,80.8,37.2,29.75,SSE,164,4.0,19.0,21,0.00,,,0.00,meteohub,2013-04-13 19:18:00,
2013-04-13 14:23:00,81.0,36.1,29.74,SSW,197,2.0,19.0,20,0.00,,,0.00,meteohub,2013-04-13 19:23:00,
2013-04-13 14:28:00,81.1,36.3,29.74,South,184,0.0,21.0,20,0.00,,,0.00,meteohub,2013-04-13 19:28:00,
2013-04-13 14:33:00,81.3,36.5,29.73,SSE,164,6.0,21.0,20,0.00,,,0.00,meteohub,2013-04-13 19:33:00,
2013-04-13 14:38:00,81.1,35.1,29.74,South,170,8.0,20.0,19,0.00,,,0.00,meteohub,2013-04-13 19:38:00,
2013-04-13 14:43:00,81.1,36.3,29.73,SSE,159,7.0,20.0,20,0.00,,,0.00,meteohub,2013-04-13 19:43:00,
2013-04-13 14:48:00,81.3,35.1,29.73,SSE,162,2.0,20.0,19,0.00,,,0.00,meteohub,2013-04-13 19:48:00,
2013-04-13 14:53:00,81.7,35.4,29.73,South,186,7.0,20.0,19,0.00,,,0.00,meteohub,2013-04-13 19:53:00,
2013-04-13 14:58:00,81.7,34.0,29.73,South,171,4.0,21.0,18,0.00,,,0.00,meteohub,2013-04-13 19:58:00,
2013-04-13 15:03:00,81.5,35.2,29.73,SE,144,6.0,21.0,19,0.00,,,0.00,meteohub,2013-04-13 20:03:00,
2013-04-13 15:08:00,81.1,35.1,29.72,SSW,193,2.0,21.0,19,0.00,,,0.00,meteohub,2013-04-13 20:08:00,
2013-04-13 15:13:00,81.0,34.9,29.72,SSW,198,4.0,21.0,19,0.00,,,0.00,meteohub,2013-04-13 20:13:00,
2013-04-13 15:18:00,81.0,36.1,29.72,SSE,166,11.0,21.0,20,0.00,,,0.00,meteohub,2013-04-13 20:18:00,
2013-04-13 15:23:00,81.0,36.1,29.72,SW,222,3.0,16.0,20,0.00,,,0.00,meteohub,2013-04-13 20:23:00,
2013-04-13 15:28:00,81.3,36.5,29.71,SSE,166,11.0,24.0,20,0.00,,,0.00,meteohub,2013-04-13 20:28:00,
2013-04-13 15:33:00,81.9,35.6,29.71,South,185,8.0,24.0,19,0.00,,,0.00,meteohub,2013-04-13 20:33:00,
2013-04-13 15:38:00,81.7,35.4,29.71,SSE,158,0.0,19.0,19,0.00,,,0.00,meteohub,2013-04-13 20:38:00,
2013-04-13 15:43:00,81.7,35.4,29.70,SSE,155,0.0,19.0,19,0.00,,,0.00,meteohub,2013-04-13 20:43:00,
2013-04-13 15:48:00,81.9,36.9,29.70,SSE,162,12.0,19.0,20,0.00,,,0.00,meteohub,2013-04-13 20:48:00,
2013-04-13 15:53:00,81.5,37.8,29.70,SE,132,6.0,19.0,21,0.00,,,0.00,meteohub,2013-04-13 20:53:00,
2013-04-13 15:58:00,81.7,36.7,29.70,ESE,122,4.0,18.0,20,0.00,,,0.00,meteohub,2013-04-13 20:58:00,
2013-04-13 16:03:00,81.9,38.1,29.69,SSE,147,4.0,18.0,21,0.00,,,0.00,meteohub,2013-04-13 21:03:00,
2013-04-13 16:09:00,82.0,38.3,29.69,SE,129,5.0,18.0,21,0.00,,,0.00,meteohub,2013-04-13 21:09:00,
2013-04-13 16:14:00,81.9,39.2,29.68,SSE,167,12.0,22.0,22,0.00,,,0.00,meteohub,2013-04-13 21:14:00,
2013-04-13 16:19:00,81.9,39.2,29.69,SSW,197,4.0,21.0,22,0.00,,,0.00,meteohub,2013-04-13 21:19:00,
2013-04-13 16:24:00,81.9,39.2,29.69,SSE,156,8.0,21.0,22,0.00,,,0.00,meteohub,2013-04-13 21:24:00,
2013-04-13 16:29:00,81.5,40.1,29.68,South,184,8.0,19.0,23,0.00,,,0.00,meteohub,2013-04-13 21:29:00,
2013-04-13 16:34:00,81.0,39.7,29.68,South,187,3.0,19.0,23,0.00,,,0.00,meteohub,2013-04-13 21:34:00,
2013-04-13 16:39:00,81.0,38.5,29.68,SE,142,0.0,19.0,22,0.00,,,0.00,meteohub,2013-04-13 21:39:00,
2013-04-13 16:44:00,81.0,39.7,29.68,SE,135,0.0,19.0,23,0.00,,,0.00,meteohub,2013-04-13 21:44:00,
2013-04-13 16:49:00,81.9,39.2,29.68,SE,126,2.0,12.0,22,0.00,,,0.00,meteohub,2013-04-13 21:49:00,
2013-04-13 16:54:00,82.0,39.4,29.68,SE,142,9.0,12.0,22,0.00,,,0.00,meteohub,2013-04-13 21:54:00,
2013-04-13 16:59:00,82.2,39.6,29.68,SSE,151,2.0,20.0,22,0.00,,,0.00,meteohub,2013-04-13 21:59:00,
2013-04-13 17:04:00,82.0,40.6,29.68,SSE,155,9.0,20.0,23,0.00,,,0.00,meteohub,2013-04-13 22:04:00,
2013-04-13 17:09:00,81.3,41.0,29.67,South,175,2.0,17.0,24,0.00,,,0.00,meteohub,2013-04-13 22:09:00,
2013-04-13 17:14:00,81.1,41.0,29.67,South,172,0.0,17.0,24,0.00,,,0.00,meteohub,2013-04-13 22:14:00,
2013-04-13 17:19:00,81.1,41.0,29.67,SSW,192,3.0,17.0,24,0.00,,,0.00,meteohub,2013-04-13 22:19:00,
2013-04-13 17:24:00,81.1,41.0,29.67,SSE,156,8.0,17.0,24,0.00,,,0.00,meteohub,2013-04-13 22:24:00,
2013-04-13 17:29:00,81.1,41.0,29.66,SE,139,4.0,13.0,24,0.00,,,0.00,meteohub,2013-04-13 22:29:00,
2013-04-13 17:34:00,81.3,41.0,29.66,ESE,104,5.0,13.0,24,0.00,,,0.00,meteohub,2013-04-13 22:34:00,
2013-04-13 17:39:00,81.1,41.9,29.66,East,87,2.0,15.0,25,0.00,,,0.00,meteohub,2013-04-13 22:39:00,
2013-04-13 17:44:00,80.8,41.7,29.66,SE,128,9.0,15.0,25,0.00,,,0.00,meteohub,2013-04-13 22:44:00,
2013-04-13 17:49:00,81.0,41.9,29.66,SSW,207,4.0,23.0,25,0.00,,,0.00,meteohub,2013-04-13 22:49:00,
2013-04-13 17:54:00,80.8,41.7,29.65,ESE,111,4.0,23.0,25,0.00,,,0.00,meteohub,2013-04-13 22:54:00,
2013-04-13 17:59:00,80.6,41.5,29.65,SE,141,2.0,22.0,25,0.00,,,0.00,meteohub,2013-04-13 22:59:00,
2013-04-13 18:04:00,80.4,41.4,29.65,SE,144,1.0,22.0,25,0.00,,,0.00,meteohub,2013-04-13 23:04:00,
2013-04-13 18:09:00,80.4,40.3,29.65,SSE,150,6.0,22.0,24,0.00,,,0.00,meteohub,2013-04-13 23:09:00,
2013-04-13 18:14:00,80.4,40.3,29.65,South,171,4.0,17.0,24,0.00,,,0.00,meteohub,2013-04-13 23:14:00,
2013-04-13 18:19:00,80.4,40.3,29.65,ESE,104,0.0,17.0,24,0.00,,,0.00,meteohub,2013-04-13 23:19:00,
2013-04-13 18:24:00,80.1,40.1,29.65,South,169,0.0,21.0,24,0.00,,,0.00,meteohub,2013-04-13 23:24:00,
2013-04-13 18:29:00,79.7,40.8,29.65,ESE,116,6.0,21.0,25,0.00,,,0.00,meteohub,2013-04-13 23:29:00,
2013-04-13 18:34:00,79.3,40.5,29.65,SSE,150,4.0,21.0,25,0.00,,,0.00,meteohub,2013-04-13 23:34:00,
2013-04-13 18:39:00,79.2,39.2,29.65,South,180,3.0,14.0,24,0.00,,,0.00,meteohub,2013-04-13 23:39:00,
2013-04-13 18:45:00,79.2,39.2,29.65,SSE,153,7.0,14.0,24,0.00,,,0.00,meteohub,2013-04-13 23:45:00,
2013-04-13 18:50:00,79.2,39.2,29.65,SSE,168,2.0,14.0,24,0.00,,,0.00,meteohub,2013-04-13 23:50:00,
2013-04-13 18:55:00,79.0,39.2,29.66,South,174,7.0,14.0,24,0.00,,,0.00,meteohub,2013-04-13 23:55:00,
2013-04-13 19:00:00,78.6,40.8,29.66,SE,130,0.0,14.0,26,0.00,,,0.00,meteohub,2013-04-14 00:00:00,
2013-04-13 19:05:00,78.3,41.5,29.66,SE,126,1.0,14.0,27,0.00,,,0.00,meteohub,2013-04-14 00:05:00,
2013-04-13 19:10:00,78.1,41.4,29.66,SE,144,6.0,19.0,27,0.00,,,0.00,meteohub,2013-04-14 00:10:00,
2013-04-13 19:15:00,77.7,42.1,29.66,SE,133,0.0,19.0,28,0.00,,,0.00,meteohub,2013-04-14 00:15:00,
2013-04-13 19:20:00,77.4,42.6,29.67,ESE,107,2.0,15.0,29,0.00,,,0.00,meteohub,2013-04-14 00:20:00,
2013-04-13 19:25:00,77.0,43.2,29.66,ESE,116,1.0,15.0,30,0.00,,,0.00,meteohub,2013-04-14 00:25:00,
2013-04-13 19:30:00,76.8,43.0,29.66,South,184,7.0,14.0,30,0.00,,,0.00,meteohub,2013-04-14 00:30:00,
2013-04-13 19:35:00,76.6,43.7,29.66,SE,126,5.0,14.0,31,0.00,,,0.00,meteohub,2013-04-14 00:35:00,
2013-04-13 19:40:00,76.5,42.8,29.66,SE,127,5.0,14.0,30,0.00,,,0.00,meteohub,2013-04-14 00:40:00,
2013-04-13 19:45:00,76.3,41.7,29.66,SSE,150,5.0,14.0,29,0.00,,,0.00,meteohub,2013-04-14 00:45:00,
2013-04-13 19:50:00,76.1,41.5,29.66,SE,130,7.0,18.0,29,0.00,,,0.00,meteohub,2013-04-14 00:50:00,
2013-04-13 19:55:00,75.9,39.6,29.66,SE,134,6.0,18.0,27,0.00,,,0.00,meteohub,2013-04-14 00:55:00,
2013-04-13 20:00:00,75.6,38.3,29.66,SE,144,11.0,18.0,26,0.00,,,0.00,meteohub,2013-04-14 01:00:00,
2013-04-13 20:05:00,75.4,38.1,29.66,SSE,159,13.0,18.0,26,0.00,,,0.00,meteohub,2013-04-14 01:05:00,
2013-04-13 20:10:00,75.0,38.8,29.66,ESE,123,2.0,15.0,27,0.00,,,0.00,meteohub,2013-04-14 01:10:00,
2013-04-13 20:15:00,74.8,40.5,29.66,SSE,154,0.0,15.0,29,0.00,,,0.00,meteohub,2013-04-14 01:15:00,
2013-04-13 20:20:00,74.5,37.4,29.66,SE,144,9.0,15.0,26,0.00,,,0.00,meteohub,2013-04-14 01:20:00,
2013-04-13 20:25:00,74.1,37.0,29.66,SSE,164,0.0,15.0,26,0.00,,,0.00,meteohub,2013-04-14 01:25:00,
2013-04-13 20:30:00,73.9,36.9,29.66,SE,137,0.0,12.0,26,0.00,,,0.00,meteohub,2013-04-14 01:30:00,
2013-04-13 20:35:00,73.8,36.7,29.66,SSE,165,8.0,12.0,26,0.00,,,0.00,meteohub,2013-04-14 01:35:00,
2013-04-13 20:40:00,73.4,37.4,29.66,SSE,163,5.0,13.0,27,0.00,,,0.00,meteohub,2013-04-14 01:40:00,
2013-04-13 20:45:00,73.0,37.0,29.66,SSE,166,1.0,13.0,27,0.00,,,0.00,meteohub,2013-04-14 01:45:00,
2013-04-13 20:50:00,72.7,37.8,29.66,SE,140,2.0,12.0,28,0.00,,,0.00,meteohub,2013-04-14 01:50:00,
2013-04-13 20:55:00,72.3,37.4,29.67,SSE,163,5.0,15.0,28,0.00,,,0.00,meteohub,2013-04-14 01:55:00,
2013-04-13 21:00:00,72.1,37.2,29.67,South,175,0.0,15.0,28,0.00,,,0.00,meteohub,2013-04-14 02:00:00,
2013-04-13 21:05:00,71.8,36.9,29.67,South,187,1.0,15.0,28,0.00,,,0.00,meteohub,2013-04-14 02:05:00,
2013-04-13 21:10:00,71.4,37.6,29.68,SSW,198,0.0,12.0,29,0.00,,,0.00,meteohub,2013-04-14 02:10:00,
2013-04-13 21:15:00,71.1,38.1,29.68,SSE,147,2.0,11.0,30,0.00,,,0.00,meteohub,2013-04-14 02:15:00,
2013-04-13 21:20:00,70.9,37.9,29.68,SE,139,4.0,11.0,30,0.00,,,0.00,meteohub,2013-04-14 02:20:00,
2013-04-13 21:25:00,70.3,38.3,29.68,South,182,3.0,11.0,31,0.00,,,0.00,meteohub,2013-04-14 02:25:00,
2013-04-13 21:30:00,70.2,38.1,29.68,SSW,192,0.0,11.0,31,0.00,,,0.00,meteohub,2013-04-14 02:30:00,
2013-04-13 21:35:00,69.8,38.7,29.68,South,183,0.0,11.0,32,0.00,,,0.00,meteohub,2013-04-14 02:35:00,
2013-04-13 21:40:00,69.4,39.0,29.69,SSE,165,0.0,11.0,33,0.00,,,0.00,meteohub,2013-04-14 02:40:00,
2013-04-13 21:45:00,69.3,38.8,29.69,SSE,153,2.0,11.0,33,0.00,,,0.00,meteohub,2013-04-14 02:45:00,
2013-04-13 21:50:00,68.9,39.4,29.69,South,178,2.0,8.0,34,0.00,,,0.00,meteohub,2013-04-14 02:50:00,
2013-04-13 21:55:00,68.7,39.2,29.69,SSE,152,0.0,11.0,34,0.00,,,0.00,meteohub,2013-04-14 02:55:00,
2013-04-13 22:00:00,68.5,39.7,29.70,SE,140,6.0,11.0,35,0.00,,,0.00,meteohub,2013-04-14 03:00:00,
2013-04-13 22:05:00,68.4,40.3,29.70,SSE,148,0.0,11.0,36,0.00,,,0.00,meteohub,2013-04-14 03:05:00,
2013-04-13 22:10:00,68.2,41.5,29.70,SSW,195,1.0,12.0,38,0.00,,,0.00,meteohub,2013-04-14 03:10:00,
2013-04-13 22:15:00,68.2,42.3,29.70,SSW,194,0.0,12.0,39,0.00,,,0.00,meteohub,2013-04-14 03:15:00,
2013-04-13 22:21:00,68.2,42.3,29.70,SSE,167,6.0,12.0,39,0.00,,,0.00,meteohub,2013-04-14 03:21:00,
2013-04-13 22:26:00,68.4,43.2,29.70,SE,142,7.0,12.0,40,0.00,,,0.00,meteohub,2013-04-14 03:26:00,
2013-04-13 22:31:00,68.4,43.2,29.70,SSE,159,0.0,12.0,40,0.00,,,0.00,meteohub,2013-04-14 03:31:00,
2013-04-13 22:36:00,68.4,43.7,29.71,South,188,1.0,12.0,41,0.00,,,0.00,meteohub,2013-04-14 03:36:00,
2013-04-13 22:41:00,68.4,44.4,29.71,South,188,3.0,14.0,42,0.00,,,0.00,meteohub,2013-04-14 03:41:00,
2013-04-13 22:46:00,68.4,44.4,29.71,South,182,0.0,14.0,42,0.00,,,0.00,meteohub,2013-04-14 03:46:00,
2013-04-13 22:51:00,68.4,45.0,29.72,SE,136,7.0,14.0,43,0.00,,,0.00,meteohub,2013-04-14 03:51:00,
2013-04-13 22:56:00,68.4,45.0,29.72,SSE,159,7.0,14.0,43,0.00,,,0.00,meteohub,2013-04-14 03:56:00,
2013-04-13 23:00:00,68.4,45.0,29.72,SSE,154,4.0,11.0,43,0.00,,,0.00,meteohub,2013-04-14 04:00:00,
2013-04-13 23:05:00,68.4,45.7,29.72,SE,144,1.0,11.0,44,0.00,,,0.00,meteohub,2013-04-14 04:05:00,
2013-04-13 23:10:00,68.5,45.7,29.72,South,180,0.0,12.0,44,0.00,,,0.00,meteohub,2013-04-14 04:10:00,
2013-04-13 23:15:00,68.5,46.4,29.72,South,171,1.0,12.0,45,0.00,,,0.00,meteohub,2013-04-14 04:15:00,
2013-04-13 23:20:00,68.7,46.6,29.72,SSE,159,0.0,12.0,45,0.00,,,0.00,meteohub,2013-04-14 04:20:00,
2013-04-13 23:25:00,68.7,46.6,29.71,SSW,201,2.0,12.0,45,0.00,,,0.00,meteohub,2013-04-14 04:25:00,
2013-04-13 23:30:00,68.9,46.8,29.71,SSW,192,2.0,11.0,45,0.00,,,0.00,meteohub,2013-04-14 04:30:00,
2013-04-13 23:35:00,69.1,47.5,29.71,South,189,2.0,11.0,46,0.00,,,0.00,meteohub,2013-04-14 04:35:00,
2013-04-13 23:40:00,69.1,47.5,29.71,SSE,166,0.0,12.0,46,0.00,,,0.00,meteohub,2013-04-14 04:40:00,
2013-04-13 23:45:00,69.3,47.7,29.71,South,179,0.0,12.0,46,0.00,,,0.00,meteohub,2013-04-14 04:45:00,
2013-04-13 23:50:00,69.3,47.7,29.71,SSE,166,0.0,12.0,46,0.00,,,0.00,meteohub,2013-04-14 04:50:00,
2013-04-13 23:55:00,69.3,48.2,29.71,South,183,0.0,12.0,47,0.00,,,0.00,meteohub,2013-04-14 04:55:00,